Location: USNO
(38.9242°N, 77.0663°W)
Time: 12:49:35
(UTC-04:00)

Vanguard 3 - Visible Passes

Search period start: 18 July 2018 00:00
Search period end: 28 July 2018 00:00
Orbit: 508 x 3264 km, 33.3° (Epoch: 17 July)

Date Brightness Start Highest point End Pass type
(mag) Time Alt. Az. Time Alt. Az. Time Alt. Az.
18 Jul 8.0 21:39:09 10° W 21:48:47 57° S 21:53:05 18° ESE visible
18 Jul 8.9 23:54:44 10° W 23:57:39 20° WSW 23:57:39 20° WSW visible
19 Jul 7.7 22:38:43 10° W 22:46:39 44° SSW 22:47:53 39° SSE visible
20 Jul 8.2 21:22:15 10° W 21:32:54 58° S 21:38:07 15° ESE visible
20 Jul 8.8 23:38:26 10° W 23:42:41 23° SW 23:42:41 23° SW visible
21 Jul 8.1 22:22:02 10° W 22:30:47 43° SSW 22:32:54 32° SSE visible
22 Jul 8.5 21:05:14 10° W 21:16:56 58° SSW 21:23:07 12° ESE visible
22 Jul 8.8 23:22:03 10° W 23:27:41 24° SW 23:27:41 24° SW visible
23 Jul 8.4 22:05:14 10° W 22:14:48 42° SSW 22:17:54 27° SSE visible
24 Jul 8.8 20:48:08 10° W 21:00:52 58° SSW 21:07:56 10° ESE visible
24 Jul 9.0 23:05:34 10° W 23:12:03 23° SW 23:12:40 22° SSW visible
25 Jul 8.8 21:48:20 10° W 21:58:43 40° SSW 22:02:54 21° SSE visible
26 Jul 9.2 22:49:01 10° W 22:55:53 22° SW 22:57:41 20° SSW visible
27 Jul 9.1 21:31:20 10° W 21:42:31 39° SSW 21:47:55 17° SSE visible
